Regional Weather Roundup
Issued by NWS Sterling, VA

Home | Current Version | Previous Version | Text Only | Print | Product List | Glossary Off
Versions: 1 2 3 4 5 6 7 8 9 10 11 12 13 14 15 16 17 18 19 20 21 22 23 24 25 26 27 28 29 30 31 32 33 34 35 36 37 38 39 40 41 42 43 44 45 46 47 48 49 50

000
ASUS41 KLWX 010910
RWRLWX

REGIONAL WEATHER ROUNDUP
NATIONAL WEATHER SERVICE BALTIMORE MD/WASHINGTON DC
500 AM EDT WED JUL 01 2015

Note: "FAIR" indicates few or no clouds below 12,000 feet
with no significant weather and/or obstructions to visibility.
 TC=TEMPERATURE CELSIUS

 * =Non NWS site. Station does not report precipitation (e.g. rain,
    snow, etc.), thunder, or fog.

DCZ001-MDZ009-015-VAZ040>042-051-053>054-011000-
WASHINGTON METRO

CITY           SKY/WX    TMP DP  RH WIND       PRES   REMARKS
WASHINGTON NAT CLOUDY    69  66  90 W3        29.85R
DULLES         CLOUDY    67  65  93 CALM      29.84R FOG
ANDREWS AFB    MOCLDY    66  65  99 W5        29.83S
FT BELVOIR     PTCLDY    66  64  94 CALM      29.84S FOG
QUANTICO       CLEAR     69  65  86 SW3       29.85R
LEESBURG*      CLOUDY    66  66 100 CALM      29.85S
MANASSAS*      CLOUDY    66  66 100 CALM      29.85R
GAITHERSBURG*  CLOUDY    66  63  88 CALM      29.89R

$$

MDZ006>007-011-014-011000-
BALTIMORE METRO

CITY           SKY/WX    TMP DP  RH WIND       PRES   REMARKS
BWI AIRPORT    CLOUDY    66  65  96 SW5       29.82R
MD SCIENCE CTR   N/A     68  65  90 MISG      29.83R
MARTIN STATE   CLOUDY    68  68 100 CALM      29.84R
ANNAPOLIS      CLOUDY    67  65  93 CALM      29.81S
FORT MEADE*    CLOUDY    64  63  94 CALM      29.86S

$$

MDZ012-015-019>023-011000-
MARYLAND EASTERN SHORE

CITY           SKY/WX    TMP DP  RH WIND       PRES   REMARKS
OCEAN CITY     CLOUDY    73  67  81 CALM      29.82F
SALISBURY      CLOUDY    71  68  90 S3        29.82F
BAY BRIDGE AP*   N/A     68  68 100 W6        29.82S
CAMBRIDGE*     CLOUDY    70  66  88 S3        29.83R
EASTON*        CLOUDY    69  69 100 CALM      29.85S FOG

$$

MDZ017>025-011000-
SOUTHERN MARYLAND

CITY           SKY/WX    TMP DP  RH WIND       PRES   REMARKS
PATUXENT RIVER CLOUDY    69  68  96 SE3       29.83R
ST INIGOES     CLOUDY    71  68  90 S8        29.84R
LEONARDTOWN*   CLOUDY    68  64  88 SW3       29.85R

$$

MDZ003>005-011000-
NORTH CENTRAL MARYLAND

CITY           SKY/WX    TMP DP  RH WIND       PRES   REMARKS
FREDERICK*     CLOUDY    68  68 100 S6        29.86S
HAGERSTOWN APT CLOUDY    68  61  78 SW5       29.84R
WESTMINSTER*   CLOUDY    66  63  88 SW7       29.84S

$$

MDZ501>502-011000-
WESTERN MARYLAND

CITY           SKY/WX    TMP DP  RH WIND       PRES   REMARKS
OAKLAND*       CLOUDY    55 N/A N/A SW12G22   29.92F
CUMBERLAND*    CLOUDY    66  55  68 CALM      29.89S

$$

VAZ025>031-011000-
SHENANDOAH VALLEY

CITY           SKY/WX    TMP DP  RH WIND       PRES   REMARKS
WINCHESTER*    CLOUDY    66  64  94 SW5       29.85R
FRONT ROYAL*   FAIR      64  64 100 SW5       29.84S
LURAY*         PTSUNNY   66  66 100 SW5       29.86S
NEW MARKET*    FAIR      63  63  99 CALM      29.87R
STAUNTON*      PTCLDY    65  62  88 S5        29.92R
WAYNESBORO*    NOT AVBL

$$

WVZ021-048>050-054>055-011000-
EASTERN WEST VIRGINIA PANHANDLE

CITY           SKY/WX    TMP DP  RH WIND       PRES   REMARKS
MARTINSBURG    CLOUDY    65  63  93 CALM      29.85S
PETERSBURG*    MOCLDY    61  57  87 SE3       29.88S

$$

VAZ036>039-050-011000-
CENTRAL FOOTHILLS

CITY           SKY/WX    TMP DP  RH WIND       PRES   REMARKS
CHARLOTTESVILL PTCLDY    68  61  78 SW5       29.86R
CULPEPER*      CLOUDY    64  64 100 CALM      29.86R VSB 1/2
ORANGE*        FOG       64  63  94 CALM      29.87R VSB 1/2
GORDONSVILLE*  FAIR      64  64 100 SW3       29.85S FOG
WARRENTON*     CLOUDY    67  67 100 CALM      29.85R FOG

$$

VAZ055>057-011000-
NORTH AND CENTRAL PIEDMONT

CITY           SKY/WX    TMP DP  RH WIND       PRES   REMARKS
FREDERICKSBRG*   N/A     68  68 100 S3        29.84R FOG
STAFFORD*      FOG       65  64  97 CALM      29.88R VSB<1/4

$$

NCZ024-NYZ072-PAZ021-071-VAZ022-071-011000-
OTHER REGIONAL OBSERVATIONS

CITY           SKY/WX    TMP DP  RH WIND       PRES   REMARKS
NEW YORK CITY  CLOUDY    69  66  90 VRB3      29.79S
PHILADELPHIA   LGT RAIN  70  66  87 S7        29.79F
PITTSBURGH     CLOUDY    61  59  93 SW6       29.84S FOG
ROANOKE        CLEAR     63  60  90 W3        29.95R
RICHMOND       MOCLDY    69  67  93 S5        29.86R
RALEIGH        PTCLDY    68  66  93 SW6       29.92S

$$

ANZ530>537-011000-
MARINE OBSERVATIONS

STATION/POSITION TIME  TEMP    WIND        PRES
                       AIR SEA DIR/SP/G
                 (UTC) (F)     (DEG/KT/KT) (MB)
THOMAS PT LIGHT  NOT AVBL
BALT KEY BRIDGE  0800   66     230/  5/  5 1009.6F
COVE POINT       0800   70     280/  6/ 11 1009.9F
LEWISETTA        0800   70 80  230/  7/ 10 1009.6F
SOLOMONS ISLAND  0800      80                N/A
PINEY POINT      0800          260/  3/  5   N/A

$$



USA.gov is the U.S. government's official web portal to all federal, state and local government web resources and services.